START_TIME,STEP,MOV.,M29,t_acc.,H22,t_acc.,H26,t_acc.,H30,t_acc.
1979-03-04 12:00:21.400 ,1,1,0.,24.0,0.,24.0,0.,24.0,0.,24.0
1979-03-04 12:00:45.400 ,2,1,0.,24.0,0.,24.0,0.,24.0,0.,24.0
1979-03-04 12:01:09.400 ,3,1,0.,24.0,0.,24.0,0.,24.0,0.,24.0
1979-03-04 12:01:33.400 ,4,1,0.,24.0,0.,24.0,0.,24.0,0.,24.0
1979-03-04 12:01:57.400 ,5,1,0.,24.0,0.,24.0,0.,24.0,0.,24.0
1979-03-04 12:02:21.400 ,6,1,0.,24.0,0.,24.0,0.,24.0,0.,24.0
1979-03-04 12:02:45.400 ,7,1,0.,24.0,0.,24.0,0.,24.0,0.,24.0
1979-03-04 12:03:09.400 ,7,1,0.,24.0,0.,24.0,0.,24.0,0.,24.0
1979-03-04 12:03:33.400 ,6,1,0.,24.0,0.,24.0,0.,24.0,0.,24.0
1979-03-04 12:03:57.400 ,5,1,0.,24.0,0.,24.0,0.,24.0,0.,24.0
1979-03-04 12:04:21.400 ,4,1,0.,24.0,0.,24.0,0.,24.0,0.,24.0
1979-03-04 12:04:45.400 ,3,1,0.,24.0,0.,24.0,0.,24.0,0.,24.0
1979-03-04 12:05:09.400 ,2,1,0.,24.0,0.,24.0,0.,24.0,0.,24.0
1979-03-04 12:05:33.400 ,1,1,0.,24.0,0.,24.0,0.,24.0,0.,24.0
1979-03-04 12:05:57.400 ,0,1,0.,24.0,0.,24.0,0.,24.0,0.,24.0
1979-03-04 12:06:21.400 ,0,1,0.,24.0,0.,24.0,0.,24.0,0.,24.0
1979-03-04 12:06:45.400 ,1,1,0.,24.0,0.,24.0,0.,24.0,0.,24.0
1979-03-04 12:07:09.400 ,2,1,0.,24.0,0.,24.0,0.,24.0,0.,24.0
1979-03-04 12:07:33.400 ,3,1,0.,24.0,0.,24.0,0.,24.0,0.,24.0
1979-03-04 12:07:57.400 ,4,1,0.,24.0,0.,24.0,0.,24.0,0.,24.0
1979-03-04 12:08:21.400 ,5,1,0.,24.0,0.,24.0,0.,24.0,0.,24.0
1979-03-04 12:08:45.400 ,6,1,0.,24.0,0.,24.0,0.,24.0,0.,24.0
1979-03-04 12:09:09.400 ,7,1,0.,24.0,0.,24.0,0.,24.0,0.,24.0
1979-03-04 12:09:33.400 ,7,1,0.,24.0,0.,24.0,0.,24.0,0.,24.0
1979-03-04 12:09:57.400 ,6,1,0.,24.0,0.,24.0,0.,24.0,0.,24.0
1979-03-04 12:10:21.400 ,5,1,0.,24.0,0.,24.0,0.,24.0,0.,24.0
1979-03-04 12:10:45.400 ,4,1,0.,24.0,0.,24.0,0.,24.0,0.,24.0
1979-03-04 12:11:09.400 ,3,1,0.,24.0,0.,24.0,0.,24.0,0.,24.0
1979-03-04 12:11:33.400 ,2,1,0.,24.0,0.,24.0,0.,24.0,0.,24.0
1979-03-04 12:11:57.400 ,1,1,0.,24.0,0.,24.0,0.,24.0,0.,24.0
1979-03-04 12:12:21.400 ,0,1,0.,24.0,0.,24.0,0.,24.0,0.,24.0
1979-03-04 12:12:45.400 ,0,1,0.,24.0,0.,24.0,0.,24.0,0.,24.0
1979-03-04 12:13:09.400 ,1,1,0.,24.0,0.,24.0,0.,24.0,0.,24.0
1979-03-04 12:13:33.400 ,2,1,0.,24.0,0.,24.0,0.,24.0,0.,24.0
1979-03-04 12:13:57.400 ,3,1,0.,24.0,0.,24.0,0.,24.0,0.,24.0
1979-03-04 12:14:21.400 ,4,1,0.,24.0,0.,24.0,0.,24.0,0.,24.0
1979-03-04 12:14:45.400 ,5,1,0.,24.0,0.,24.0,0.,24.0,0.,24.0
1979-03-04 12:15:09.400 ,6,1,0.,24.0,0.,24.0,0.,24.0,0.,24.0
1979-03-04 12:15:33.400 ,7,1,0.,24.0,0.,24.0,0.,24.0,0.,24.0
1979-03-04 12:15:57.400 ,7,1,0.,24.0,0.,24.0,0.,24.0,0.,24.0
1979-03-04 12:16:21.400 ,6,1,0.,24.0,0.,24.0,0.,24.0,0.,24.0
1979-03-04 12:16:45.400 ,5,1,0.,24.0,0.,24.0,0.,24.0,0.,24.0
1979-03-04 12:17:09.400 ,4,1,0.,24.0,0.,24.0,0.,24.0,0.,24.0
1979-03-04 12:17:33.400 ,3,1,0.,24.0,0.,24.0,0.,24.0,0.,24.0
1979-03-04 12:17:57.400 ,2,1,0.,24.0,0.,24.0,0.,24.0,0.,24.0
1979-03-04 12:18:21.400 ,1,1,0.,24.0,0.,24.0,0.,24.0,0.,24.0
1979-03-04 12:18:45.400 ,0,1,0.,24.0,0.,24.0,0.,24.0,0.,24.0
1979-03-04 12:19:09.400 ,0,1,0.,24.0,0.,24.0,0.,24.0,0.,24.0
1979-03-04 12:19:33.400 ,1,1,0.,24.0,0.,24.0,0.,24.0,0.,24.0
1979-03-04 12:19:57.400 ,2,1,0.,24.0,0.,24.0,0.,24.0,0.,24.0
1979-03-04 12:20:21.400 ,3,1,0.,24.0,0.,24.0,0.,24.0,0.,24.0
1979-03-04 12:20:45.400 ,4,1,0.,24.0,0.,24.0,0.,24.0,0.,24.0
1979-03-04 12:21:09.400 ,5,1,0.,24.0,0.,24.0,0.,24.0,0.,24.0
1979-03-04 12:21:33.400 ,6,1,0.,24.0,0.,24.0,0.,24.0,0.,24.0
1979-03-04 12:21:57.400 ,7,1,0.,24.0,0.,24.0,0.,24.0,0.,24.0
1979-03-04 12:22:21.400 ,7,1,0.,24.0,0.,24.0,0.,24.0,0.,24.0
1979-03-04 12:22:45.400 ,6,1,0.,24.0,0.,24.0,0.,24.0,0.,24.0
1979-03-04 12:23:09.400 ,5,1,0.,24.0,0.,24.0,0.,24.0,0.,24.0
1979-03-04 12:23:33.400 ,4,1,0.,24.0,0.,24.0,0.,24.0,0.,24.0
1979-03-04 12:23:57.400 ,3,1,0.,24.0,0.,24.0,0.,24.0,0.,24.0
1979-03-04 12:24:21.400 ,2,1,0.,24.0,0.,24.0,0.,24.0,0.,24.0
1979-03-04 12:24:45.400 ,1,1,0.,24.0,0.,24.0,0.,24.0,0.,24.0
1979-03-04 12:25:09.400 ,0,1,0.,24.0,0.,24.0,0.,24.0,0.,24.0
1979-03-04 12:25:33.400 ,0,1,0.,24.0,0.,24.0,0.,24.0,0.,24.0
1979-03-04 12:25:57.400 ,1,1,0.,24.0,0.,24.0,0.,24.0,0.,24.0
1979-03-04 12:26:21.400 ,2,1,0.,24.0,0.,24.0,0.,24.0,0.,24.0
1979-03-04 12:26:45.400 ,3,1,0.,24.0,0.,24.0,0.,24.0,0.,24.0
1979-03-04 12:27:09.400 ,4,1,0.,24.0,0.,24.0,0.,24.0,0.,24.0
1979-03-04 12:27:33.400 ,5,1,0.,24.0,0.,24.0,0.,24.0,0.,24.0
1979-03-04 12:27:57.400 ,6,1,0.,24.0,0.,24.0,0.,24.0,0.,24.0
1979-03-04 12:28:21.400 ,7,1,0.,24.0,0.,24.0,0.,24.0,0.,24.0
1979-03-04 12:28:45.400 ,7,1,0.,24.0,0.,24.0,0.,24.0,0.,24.0
1979-03-04 12:29:09.400 ,6,1,0.,24.0,0.,24.0,0.,24.0,0.,24.0
1979-03-04 12:29:33.400 ,5,1,0.,24.0,0.,24.0,0.,24.0,0.,24.0
1979-03-04 12:29:57.400 ,4,1,0.,24.0,0.,24.0,0.,24.0,0.,24.0
1979-03-04 12:30:21.400 ,3,1,0.,24.0,0.,24.0,0.,24.0,0.,24.0
1979-03-04 12:30:45.400 ,2,1,0.,24.0,0.,24.0,0.,24.0,0.,24.0
1979-03-04 12:31:09.400 ,1,1,0.,24.0,0.,24.0,0.,24.0,0.,24.0
1979-03-04 12:31:33.400 ,0,1,0.,24.0,0.,24.0,0.,24.0,0.,24.0
1979-03-04 12:31:57.400 ,0,1,0.,24.0,0.,24.0,0.,24.0,0.,24.0
1979-03-04 12:32:21.400 ,1,1,0.,24.0,0.,24.0,0.,24.0,0.,24.0
1979-03-04 12:33:33.400 ,0,0,0.,24.0,0.,24.0,0.,24.0,0.,24.0
1979-03-04 12:33:57.400 ,5,1,0.,24.0,0.,24.0,0.,24.0,0.,24.0
1979-03-04 12:34:21.400 ,6,1,0.,24.0,0.,24.0,0.,24.0,0.,24.0
1979-03-04 12:34:45.400 ,7,1,0.,24.0,0.,24.0,0.,24.0,0.,24.0
1979-03-04 12:35:09.400 ,7,1,0.,24.0,0.,24.0,0.,24.0,0.,24.0
1979-03-04 12:35:33.400 ,6,1,0.,24.0,0.,24.0,0.,24.0,0.,24.0
1979-03-04 12:35:57.400 ,5,1,0.,24.0,0.,24.0,0.,24.0,0.,24.0
1979-03-04 12:36:21.400 ,4,1,0.,24.0,0.,24.0,0.,24.0,0.,24.0
1979-03-04 12:36:45.400 ,3,1,0.,24.0,0.,24.0,0.,24.0,0.,24.0
1979-03-04 12:37:09.400 ,2,1,0.,24.0,0.,24.0,0.,24.0,0.,24.0
1979-03-04 12:37:33.400 ,1,1,0.,24.0,0.,24.0,0.,24.0,0.,24.0
1979-03-04 12:37:57.400 ,0,1,0.,24.0,0.,24.0,0.,24.0,0.,24.0
1979-03-04 12:38:21.400 ,0,1,0.,24.0,0.,24.0,0.,24.0,0.,24.0
1979-03-04 12:38:45.400 ,1,1,0.,24.0,0.,24.0,0.,24.0,0.,24.0
1979-03-04 12:39:09.400 ,2,1,0.,24.0,0.,24.0,0.,24.0,0.,24.0
1979-03-04 12:39:33.400 ,3,1,0.,24.0,0.,24.0,0.,24.0,0.,24.0
1979-03-04 12:39:57.400 ,4,1,0.,24.0,0.,24.0,0.,24.0,0.,24.0
1979-03-04 12:40:21.400 ,5,1,0.,24.0,0.,24.0,0.,24.0,0.,24.0
1979-03-04 12:40:45.400 ,6,1,0.,24.0,0.,24.0,0.,24.0,0.,24.0
1979-03-04 12:41:09.400 ,7,1,0.,24.0,0.,24.0,0.,24.0,0.,24.0
1979-03-04 12:41:33.400 ,7,1,0.,24.0,0.,24.0,0.,24.0,0.,24.0
1979-03-04 12:41:57.400 ,6,1,0.,24.0,0.,24.0,0.,24.0,0.,24.0
1979-03-04 12:42:21.400 ,5,1,0.,24.0,0.,24.0,0.,24.0,0.,24.0
1979-03-04 12:42:45.400 ,4,1,0.,24.0,0.,24.0,0.,24.0,0.,24.0
1979-03-04 12:43:09.400 ,3,1,0.,24.0,0.,24.0,0.,24.0,0.,24.0
1979-03-04 12:43:33.400 ,2,1,0.,24.0,0.,24.0,0.,24.0,0.,24.0
1979-03-04 12:43:57.400 ,1,1,0.,24.0,0.,24.0,0.,24.0,0.,24.0
1979-03-04 12:44:21.400 ,0,1,0.,24.0,0.,24.0,0.,24.0,0.,24.0
1979-03-04 12:44:45.400 ,0,1,0.,24.0,0.,24.0,0.,24.0,0.,24.0
1979-03-04 12:45:09.400 ,1,1,0.,24.0,0.,24.0,0.,24.0,0.,24.0
1979-03-04 12:45:33.400 ,2,1,0.,24.0,0.,24.0,0.,24.0,0.,24.0
1979-03-04 12:45:57.400 ,3,1,0.,24.0,0.,24.0,0.,24.0,0.,24.0
1979-03-04 12:46:21.400 ,4,1,0.,24.0,0.,24.0,0.,24.0,0.,24.0
1979-03-04 12:46:45.400 ,5,1,0.,24.0,0.,24.0,0.,24.0,0.,24.0
1979-03-04 12:47:09.400 ,6,1,0.,24.0,0.,24.0,0.,24.0,0.,24.0
1979-03-04 12:47:33.400 ,7,1,0.,24.0,0.,24.0,0.,24.0,0.,24.0
1979-03-04 12:47:57.400 ,7,1,0.,24.0,0.,24.0,0.,24.0,0.,24.0
1979-03-04 12:48:21.400 ,6,1,0.,24.0,0.,24.0,0.,24.0,0.,24.0
1979-03-04 12:48:45.400 ,5,1,0.,24.0,0.,24.0,0.,24.0,0.,24.0
1979-03-04 12:49:09.400 ,4,1,0.,24.0,0.,24.0,0.,24.0,0.,24.0
1979-03-04 12:49:33.400 ,3,1,0.,24.0,0.,24.0,0.,24.0,0.,24.0
1979-03-04 12:49:57.400 ,2,1,0.,24.0,0.,24.0,0.,24.0,0.,24.0
1979-03-04 12:50:21.400 ,1,1,0.,24.0,0.,24.0,0.,24.0,0.,24.0
1979-03-04 12:50:45.400 ,0,1,0.,24.0,0.,24.0,0.,24.0,0.,24.0
1979-03-04 12:51:09.400 ,0,1,0.,24.0,0.,24.0,0.,24.0,0.,24.0
1979-03-04 12:51:33.400 ,1,1,0.,24.0,0.,24.0,0.,24.0,0.,24.0
1979-03-04 12:51:57.400 ,2,1,0.,24.0,0.,24.0,0.,24.0,0.,24.0
1979-03-04 12:52:21.400 ,3,1,0.,24.0,0.,24.0,0.,24.0,0.,24.0
1979-03-04 12:52:45.400 ,4,1,0.,24.0,0.,24.0,0.,24.0,0.,24.0
1979-03-04 12:53:09.400 ,5,1,0.,24.0,0.,24.0,0.,24.0,0.,24.0
1979-03-04 12:53:33.400 ,6,1,0.,24.0,0.,24.0,0.,24.0,0.,24.0
1979-03-04 12:53:57.400 ,7,1,0.,24.0,0.,24.0,0.,24.0,0.,24.0
1979-03-04 12:54:21.400 ,7,1,0.,24.0,0.,24.0,0.,24.0,0.,24.0
1979-03-04 12:54:45.400 ,6,1,0.,24.0,0.,24.0,0.,24.0,0.,24.0
1979-03-04 12:55:09.400 ,5,1,0.,24.0,0.,24.0,0.,24.0,0.,24.0
1979-03-04 12:55:33.400 ,4,1,0.,24.0,0.,24.0,0.,24.0,0.,24.0
1979-03-04 12:55:57.400 ,3,1,0.,24.0,0.,24.0,0.,24.0,0.,24.0
1979-03-04 12:56:21.400 ,2,1,0.,24.0,0.,24.0,0.,24.0,0.,24.0
1979-03-04 12:56:45.400 ,1,1,0.,24.0,0.,24.0,0.,24.0,0.,24.0
1979-03-04 12:57:09.400 ,0,1,0.,24.0,0.,24.0,0.,24.0,0.,24.0
1979-03-04 12:57:33.400 ,0,1,0.,24.0,0.,24.0,0.,24.0,0.,24.0
1979-03-04 12:57:57.400 ,1,1,0.,24.0,0.,24.0,0.,24.0,0.,24.0
1979-03-04 12:58:21.400 ,2,1,0.,24.0,0.,24.0,0.,24.0,0.,24.0
1979-03-04 12:58:45.400 ,3,1,0.,24.0,0.,24.0,0.,24.0,0.,24.0
1979-03-04 12:59:09.400 ,4,1,0.,24.0,0.,24.0,0.,24.0,0.,24.0
1979-03-04 12:59:33.400 ,5,1,0.,24.0,0.,24.0,0.,24.0,0.,24.0
1979-03-04 12:59:57.400 ,6,1,0.,24.0,0.,24.0,0.,24.0,0.,24.0
1979-03-04 13:00:21.400 ,7,1,0.,24.0,0.,24.0,0.,24.0,0.,24.0
1979-03-04 13:00:45.400 ,7,1,0.,24.0,0.,24.0,0.,24.0,0.,24.0
1979-03-04 13:01:09.400 ,6,1,0.,24.0,0.,24.0,0.,24.0,0.,24.0
1979-03-04 13:01:33.400 ,5,1,0.,24.0,0.,24.0,0.,24.0,0.,24.0
1979-03-04 13:01:57.400 ,4,1,0.,24.0,0.,24.0,0.,24.0,0.,24.0
1979-03-04 13:02:21.400 ,3,1,0.,24.0,0.,24.0,0.,24.0,0.,24.0
1979-03-04 13:02:45.400 ,2,1,0.,24.0,0.,24.0,0.,24.0,0.,24.0
1979-03-04 13:03:09.400 ,1,1,0.,24.0,0.,24.0,0.,24.0,0.,24.0
1979-03-04 13:03:33.400 ,0,1,0.,24.0,0.,24.0,0.,24.0,0.,24.0
1979-03-04 13:03:57.400 ,0,1,0.,24.0,0.,24.0,0.,24.0,0.,24.0
1979-03-04 13:04:21.400 ,1,1,0.,24.0,0.,24.0,0.,24.0,0.,24.0
1979-03-04 13:04:45.400 ,2,1,0.,24.0,0.,24.0,0.,24.0,0.,24.0
1979-03-04 13:05:09.400 ,3,1,0.,24.0,0.,24.0,0.,24.0,0.,24.0
1979-03-04 13:05:33.400 ,4,1,0.,24.0,0.,24.0,0.,24.0,0.,24.0
1979-03-04 13:05:57.400 ,5,1,0.,24.0,0.,24.0,0.,24.0,0.,24.0
1979-03-04 13:06:21.400 ,6,1,0.,24.0,0.,24.0,0.,24.0,0.,24.0
1979-03-04 13:06:45.400 ,7,1,0.,24.0,0.,24.0,0.,24.0,0.,24.0
1979-03-04 13:07:09.400 ,7,1,0.,24.0,0.,24.0,0.,24.0,0.,24.0
1979-03-04 13:07:33.400 ,6,1,0.,24.0,0.,24.0,0.,24.0,0.,24.0
1979-03-04 13:07:57.400 ,5,1,0.,24.0,0.,24.0,0.,24.0,0.,24.0
1979-03-04 13:08:21.400 ,4,1,0.,24.0,0.,24.0,0.,24.0,0.,24.0
1979-03-04 13:08:45.400 ,3,1,0.,24.0,0.,24.0,0.,24.0,0.,24.0
1979-03-04 13:09:09.400 ,2,1,0.,24.0,0.,24.0,0.,24.0,0.,24.0
1979-03-04 13:09:33.410 ,1,1,0.,24.0,0.,24.0,0.,24.0,0.,24.0
1979-03-04 13:09:57.410 ,0,1,0.,24.0,0.,24.0,0.,24.0,0.,24.0
1979-03-04 13:10:21.410 ,0,1,0.,24.0,0.,24.0,0.,24.0,0.,24.0
1979-03-04 13:10:45.410 ,1,1,0.,24.0,0.,24.0,0.,24.0,0.,24.0
1979-03-04 13:11:09.410 ,2,1,0.,24.0,0.,24.0,0.,24.0,0.,24.0
1979-03-04 13:11:33.410 ,3,1,0.,24.0,0.,24.0,0.,24.0,0.,24.0
1979-03-04 13:11:57.410 ,4,1,0.,24.0,0.,24.0,0.,24.0,0.,24.0
1979-03-04 13:12:21.410 ,5,1,0.,24.0,0.,24.0,0.,24.0,0.,24.0
1979-03-04 13:12:45.410 ,6,1,0.,24.0,0.,24.0,0.,24.0,0.,24.0
1979-03-04 13:13:09.410 ,7,1,0.,24.0,0.,24.0,0.,24.0,0.,24.0
1979-03-04 13:13:33.410 ,7,1,0.,24.0,0.,24.0,0.,24.0,0.,24.0
1979-03-04 13:13:57.410 ,6,1,0.,24.0,0.,24.0,0.,24.0,0.,24.0
1979-03-04 13:14:21.410 ,5,1,0.,24.0,0.,24.0,0.,24.0,0.,24.0
1979-03-04 13:14:45.410 ,4,1,0.,24.0,0.,24.0,0.,24.0,0.,24.0
1979-03-04 13:15:09.410 ,3,1,0.,24.0,0.,24.0,0.,24.0,0.,24.0
1979-03-04 13:15:33.410 ,2,1,0.,24.0,0.,24.0,0.,24.0,0.,24.0
1979-03-04 13:15:57.410 ,1,1,0.,24.0,0.,24.0,0.,24.0,0.,24.0
1979-03-04 13:16:21.410 ,0,1,0.,24.0,0.,24.0,0.,24.0,0.,24.0
1979-03-04 13:16:45.410 ,0,1,0.,24.0,0.,24.0,0.,24.0,0.,24.0
1979-03-04 13:17:09.410 ,1,1,0.,24.0,0.,24.0,0.,24.0,0.,24.0
1979-03-04 13:17:33.410 ,2,1,0.,24.0,0.,24.0,0.,24.0,0.,24.0
1979-03-04 13:17:57.410 ,3,1,0.,24.0,0.,24.0,0.,24.0,0.,24.0
1979-03-04 13:18:21.410 ,4,1,0.,24.0,0.,24.0,0.,24.0,0.,24.0
1979-03-04 13:18:45.410 ,5,1,0.,24.0,0.,24.0,0.,24.0,0.,24.0
1979-03-04 13:19:09.410 ,6,1,0.,24.0,0.,24.0,0.,24.0,0.,24.0
1979-03-04 13:19:33.410 ,0,0,0.,24.0,0.,24.0,0.,24.0,0.,24.0
1979-03-04 13:20:01.010 ,0,0,0.,24.0,0.,24.0,0.,24.0,0.,24.0
1979-03-04 13:20:21.410 ,6,1,0.,24.0,0.,24.0,0.,24.0,0.,24.0
1979-03-04 13:20:45.410 ,5,1,0.,24.0,0.,24.0,0.,24.0,0.,24.0
1979-03-04 13:21:09.410 ,4,1,0.,24.0,0.,24.0,0.,24.0,0.,24.0
1979-03-04 13:21:33.410 ,3,1,0.,24.0,0.,24.0,0.,24.0,0.,24.0
1979-03-04 13:21:57.410 ,2,1,0.,24.0,0.,24.0,0.,24.0,0.,24.0
1979-03-04 13:22:21.410 ,1,1,0.,24.0,0.,24.0,0.,24.0,0.,24.0
1979-03-04 13:22:45.410 ,0,1,0.,24.0,0.,24.0,0.,24.0,0.,24.0
1979-03-04 13:23:09.410 ,0,1,0.,24.0,0.,24.0,0.,24.0,0.,24.0
1979-03-04 13:23:33.410 ,1,1,0.,24.0,0.,24.0,0.,24.0,0.,24.0
1979-03-04 13:23:57.410 ,2,1,0.,24.0,0.,24.0,0.,24.0,0.,24.0
1979-03-04 13:24:21.410 ,3,1,0.,24.0,0.,24.0,0.,24.0,0.,24.0
1979-03-04 13:24:45.410 ,4,1,0.,24.0,0.,24.0,0.,24.0,0.,24.0
1979-03-04 13:25:09.410 ,5,1,0.,24.0,0.,24.0,0.,24.0,0.,24.0
1979-03-04 13:25:33.410 ,6,1,0.,24.0,0.,24.0,0.,24.0,0.,24.0
1979-03-04 13:25:57.410 ,7,1,0.,24.0,0.,24.0,0.,24.0,0.,24.0
1979-03-04 13:26:21.410 ,7,1,0.,24.0,0.,24.0,0.,24.0,0.,24.0
1979-03-04 13:26:45.410 ,6,1,0.,24.0,0.,24.0,0.,24.0,0.,24.0
1979-03-04 13:27:09.410 ,5,1,0.,24.0,0.,24.0,0.,24.0,0.,24.0
1979-03-04 13:27:33.410 ,4,1,0.,24.0,0.,24.0,0.,24.0,0.,24.0
1979-03-04 13:27:57.410 ,3,1,0.,24.0,0.,24.0,0.,24.0,0.,24.0
1979-03-04 13:28:21.410 ,2,1,0.,24.0,0.,24.0,0.,24.0,0.,24.0
1979-03-04 13:28:45.410 ,1,1,0.,24.0,0.,24.0,0.,24.0,0.,24.0
1979-03-04 13:29:09.410 ,0,1,0.,24.0,0.,24.0,0.,24.0,0.,24.0
1979-03-04 13:29:33.410 ,0,1,0.,24.0,0.,24.0,0.,24.0,0.,24.0
1979-03-04 13:29:57.410 ,1,1,0.,24.0,0.,24.0,0.,24.0,0.,24.0
1979-03-04 13:30:21.410 ,2,1,0.,24.0,0.,24.0,0.,24.0,0.,24.0
1979-03-04 13:30:45.410 ,3,1,0.,24.0,0.,24.0,0.,24.0,0.,24.0
1979-03-04 13:31:09.410 ,4,1,0.,24.0,0.,24.0,0.,24.0,0.,24.0
1979-03-04 13:31:33.410 ,5,1,0.,24.0,0.,24.0,0.,24.0,0.,24.0
1979-03-04 13:31:57.410 ,6,1,0.,24.0,0.,24.0,0.,24.0,0.,24.0
1979-03-04 13:32:21.410 ,7,1,0.,24.0,0.,24.0,0.,24.0,0.,24.0
1979-03-04 13:32:45.410 ,7,1,0.,24.0,0.,24.0,0.,24.0,0.,24.0
1979-03-04 13:33:09.410 ,6,1,0.,24.0,0.,24.0,0.,24.0,0.,24.0
